Time,TemperatureF,DewpointF,PressureIn,WindDirection,WindDirectionDegrees,WindSpeedMPH,WindSpeedGustMPH,Humidity,HourlyPrecipIn,Conditions,Clouds,dailyrainin,SoftwareType,DateUTC
2013-04-27 00:11:00,73.4,62.6,30.08,NE,45,1.7,-999.0,69,-99.99,,,0.00,Acu-Link.com,2013-04-27 04:11:00,
2013-04-27 00:26:00,73.2,62.8,30.08,NNE,22,0.0,-999.0,70,-99.99,,,0.00,Acu-Link.com,2013-04-27 04:26:00,
2013-04-27 00:41:00,73.2,62.4,30.07,ENE,67,3.7,-999.0,69,-99.99,,,0.00,Acu-Link.com,2013-04-27 04:41:00,
2013-04-27 00:56:00,73.0,62.6,30.06,ENE,67,1.7,-999.0,70,-99.99,,,0.00,Acu-Link.com,2013-04-27 04:56:00,
2013-04-27 01:12:00,73.2,62.8,30.06,NNE,22,3.7,-999.0,70,-99.99,,,0.00,Acu-Link.com,2013-04-27 05:12:00,
2013-04-27 01:27:00,73.2,62.4,30.06,NE,45,5.3,-999.0,69,-99.99,,,0.00,Acu-Link.com,2013-04-27 05:27:00,
2013-04-27 01:42:00,73.2,62.4,30.05,NE,45,4.7,-999.0,69,-99.99,,,0.00,Acu-Link.com,2013-04-27 05:42:00,
2013-04-27 01:57:00,73.6,62.8,30.04,NE,45,3.2,-999.0,69,-99.99,,,0.00,Acu-Link.com,2013-04-27 05:57:00,
2013-04-27 02:12:00,73.2,62.0,30.04,NNE,22,2.2,-999.0,68,-99.99,,,0.00,Acu-Link.com,2013-04-27 06:12:00,
2013-04-27 02:27:00,73.0,62.2,30.03,NNE,22,2.7,-999.0,69,-99.99,,,0.00,Acu-Link.com,2013-04-27 06:27:00,
2013-04-27 02:43:00,73.0,61.8,30.02,ENE,67,2.7,-999.0,68,-99.99,,,0.00,Acu-Link.com,2013-04-27 06:43:00,
2013-04-27 02:58:00,72.7,61.5,30.02,NE,45,5.3,-999.0,68,-99.99,,,0.00,Acu-Link.com,2013-04-27 06:58:00,
2013-04-27 03:13:00,72.7,61.9,30.01,ENE,67,2.2,-999.0,69,-99.99,,,0.00,Acu-Link.com,2013-04-27 07:13:00,
2013-04-27 03:28:00,72.5,61.7,30.02,NE,45,1.7,-999.0,69,-99.99,,,0.00,Acu-Link.com,2013-04-27 07:28:00,
2013-04-27 03:43:00,72.1,61.4,30.01,NE,45,1.7,-999.0,69,-99.99,,,0.00,Acu-Link.com,2013-04-27 07:43:00,
2013-04-27 03:58:00,72.3,61.1,30.01,SSE,157,1.7,-999.0,68,-99.99,,,0.00,Acu-Link.com,2013-04-27 07:58:00,
2013-04-27 04:13:00,72.3,60.3,30.01,SE,135,2.2,-999.0,66,-99.99,,,0.00,Acu-Link.com,2013-04-27 08:13:00,
2013-04-27 04:29:00,72.1,60.5,30.00,ENE,67,1.1,-999.0,67,-99.99,,,0.00,Acu-Link.com,2013-04-27 08:29:00,
2013-04-27 04:44:00,72.0,60.0,30.00,ESE,112,1.7,-999.0,66,-99.99,,,0.00,Acu-Link.com,2013-04-27 08:44:00,
2013-04-27 04:59:00,71.8,60.2,29.99,ESE,112,1.1,-999.0,67,-99.99,,,0.00,Acu-Link.com,2013-04-27 08:59:00,
2013-04-27 05:14:00,71.6,60.9,29.99,SE,135,1.1,-999.0,69,-99.99,,,0.00,Acu-Link.com,2013-04-27 09:14:00,
2013-04-27 05:29:00,70.9,60.6,29.99,ESE,112,1.1,-999.0,70,-99.99,,,0.00,Acu-Link.com,2013-04-27 09:29:00,
2013-04-27 05:44:00,70.9,61.0,29.99,ESE,112,1.7,-999.0,71,-99.99,,,0.00,Acu-Link.com,2013-04-27 09:44:00,
2013-04-27 05:59:00,70.7,60.8,29.99,NE,45,0.0,-999.0,71,-99.99,,,0.00,Acu-Link.com,2013-04-27 09:59:00,
2013-04-27 06:14:00,70.7,60.8,29.99,NE,45,1.7,-999.0,71,-99.99,,,0.00,Acu-Link.com,2013-04-27 10:14:00,
2013-04-27 06:29:00,70.7,60.8,30.00,NE,45,3.7,-999.0,71,-99.99,,,0.00,Acu-Link.com,2013-04-27 10:29:00,
2013-04-27 06:45:00,70.3,60.4,30.01,NE,45,1.7,-999.0,71,-99.99,,,0.00,Acu-Link.com,2013-04-27 10:45:00,
2013-04-27 07:00:00,70.2,60.7,30.01,NE,45,0.0,-999.0,72,-99.99,,,0.00,Acu-Link.com,2013-04-27 11:00:00,
2013-04-27 07:15:00,70.9,61.4,30.02,NE,45,2.2,-999.0,72,-99.99,,,0.00,Acu-Link.com,2013-04-27 11:15:00,
2013-04-27 07:30:00,72.1,62.2,30.02,NE,45,2.2,-999.0,71,-99.99,,,0.00,Acu-Link.com,2013-04-27 11:30:00,
2013-04-27 07:45:00,75.4,62.4,30.02,NNE,22,2.7,-999.0,64,-99.99,,,0.00,Acu-Link.com,2013-04-27 11:45:00,
2013-04-27 08:00:00,77.4,61.9,30.02,ENE,67,1.7,-999.0,59,-99.99,,,0.00,Acu-Link.com,2013-04-27 12:00:00,
2013-04-27 08:16:00,76.8,61.8,30.03,ESE,112,3.2,-999.0,60,-99.99,,,0.00,Acu-Link.com,2013-04-27 12:16:00,
2013-04-27 08:31:00,78.3,62.3,30.02,East,90,2.2,-999.0,58,-99.99,,,0.00,Acu-Link.com,2013-04-27 12:31:00,
2013-04-27 08:46:00,78.4,62.4,30.03,ESE,112,4.2,-999.0,58,-99.99,,,0.00,Acu-Link.com,2013-04-27 12:46:00,
2013-04-27 09:01:00,77.9,62.9,30.02,NE,45,3.7,-999.0,60,-99.99,,,0.00,Acu-Link.com,2013-04-27 13:01:00,
2013-04-27 09:16:00,78.8,63.2,30.02,SSE,157,3.7,-999.0,59,-99.99,,,0.00,Acu-Link.com,2013-04-27 13:16:00,
2013-04-27 09:31:00,78.4,62.9,30.01,NE,45,8.9,-999.0,59,-99.99,,,0.00,Acu-Link.com,2013-04-27 13:31:00,
2013-04-27 10:01:00,78.1,63.5,30.01,ESE,112,5.3,-999.0,61,-99.99,,,0.00,Acu-Link.com,2013-04-27 14:01:00,
2013-04-27 10:16:00,78.3,64.2,30.02,SE,135,2.7,-999.0,62,-99.99,,,0.00,Acu-Link.com,2013-04-27 14:16:00,
2013-04-27 10:32:00,79.0,64.4,30.01,ESE,112,4.2,-999.0,61,-99.99,,,0.00,Acu-Link.com,2013-04-27 14:32:00,
2013-04-27 10:47:00,79.2,63.6,30.01,ESE,112,7.8,-999.0,59,-99.99,,,0.00,Acu-Link.com,2013-04-27 14:47:00,
2013-04-27 11:02:00,78.6,63.5,30.02,East,90,10.9,-999.0,60,-99.99,,,0.00,Acu-Link.com,2013-04-27 15:02:00,
2013-04-27 11:17:00,79.0,63.9,30.01,NE,45,5.8,-999.0,60,-99.99,,,0.00,Acu-Link.com,2013-04-27 15:17:00,
2013-04-27 11:32:00,80.2,64.5,30.01,ESE,112,2.2,-999.0,59,-99.99,,,0.00,Acu-Link.com,2013-04-27 15:32:00,
2013-04-27 11:47:00,79.7,64.1,30.01,NNE,22,2.7,-999.0,59,-99.99,,,0.00,Acu-Link.com,2013-04-27 15:47:00,
2013-04-27 12:02:00,80.2,65.0,30.02,NNE,22,7.3,-999.0,60,-99.99,,,0.00,Acu-Link.com,2013-04-27 16:02:00,
2013-04-27 12:17:00,79.3,63.2,30.02,North,0,8.9,-999.0,58,-99.99,,,0.00,Acu-Link.com,2013-04-27 16:17:00,
2013-04-27 12:32:00,79.2,64.1,30.02,East,90,4.7,-999.0,60,-99.99,,,0.00,Acu-Link.com,2013-04-27 16:32:00,
2013-04-27 12:47:00,81.1,63.9,30.01,NNE,22,8.3,-999.0,56,-99.99,,,0.00,Acu-Link.com,2013-04-27 16:47:00,
2013-04-27 13:03:00,81.1,64.4,30.00,NNE,22,5.8,-999.0,57,-99.99,,,0.00,Acu-Link.com,2013-04-27 17:03:00,
2013-04-27 13:18:00,79.9,62.8,30.02,NNE,22,5.8,-999.0,56,-99.99,,,0.00,Acu-Link.com,2013-04-27 17:18:00,
2013-04-27 13:33:00,80.4,65.2,30.01,ESE,112,3.2,-999.0,60,-99.99,,,0.00,Acu-Link.com,2013-04-27 17:33:00,
2013-04-27 13:48:00,80.2,63.6,30.01,ENE,67,3.7,-999.0,57,-99.99,,,0.00,Acu-Link.com,2013-04-27 17:48:00,
2013-04-27 14:03:00,81.0,65.3,30.00,SSE,157,4.2,-999.0,59,-99.99,,,0.00,Acu-Link.com,2013-04-27 18:03:00,
2013-04-27 14:18:00,80.6,63.4,30.00,ENE,67,4.2,-999.0,56,-99.99,,,0.00,Acu-Link.com,2013-04-27 18:18:00,
2013-04-27 14:33:00,80.4,62.2,30.00,SSE,157,7.8,-999.0,54,-99.99,,,0.00,Acu-Link.com,2013-04-27 18:33:00,
2013-04-27 14:48:00,81.7,61.8,29.99,NNW,337,6.3,-999.0,51,-99.99,,,0.00,Acu-Link.com,2013-04-27 18:48:00,
2013-04-27 15:03:00,80.2,63.1,29.98,East,90,5.8,-999.0,56,-99.99,,,0.00,Acu-Link.com,2013-04-27 19:03:00,
2013-04-27 15:19:00,79.5,62.4,29.96,East,90,7.3,-999.0,56,-99.99,,,0.00,Acu-Link.com,2013-04-27 19:19:00,
2013-04-27 15:34:00,80.6,61.3,29.97,ENE,67,4.2,-999.0,52,-99.99,,,0.00,Acu-Link.com,2013-04-27 19:34:00,
2013-04-27 15:49:00,79.7,63.1,29.95,SE,135,6.3,-999.0,57,-99.99,,,0.00,Acu-Link.com,2013-04-27 19:49:00,
2013-04-27 16:04:00,79.2,62.1,29.95,NE,45,3.7,-999.0,56,-99.99,,,0.00,Acu-Link.com,2013-04-27 20:04:00,
2013-04-27 16:19:00,81.3,62.0,29.95,NNE,22,2.7,-999.0,52,-99.99,,,0.00,Acu-Link.com,2013-04-27 20:19:00,
2013-04-27 16:34:00,80.6,61.3,29.94,SE,135,4.2,-999.0,52,-99.99,,,0.00,Acu-Link.com,2013-04-27 20:34:00,
2013-04-27 16:49:00,79.2,61.6,29.94,SE,135,2.2,-999.0,55,-99.99,,,0.00,Acu-Link.com,2013-04-27 20:49:00,
2013-04-27 17:04:00,81.0,61.7,29.95,SE,135,3.7,-999.0,52,-99.99,,,0.00,Acu-Link.com,2013-04-27 21:04:00,
2013-04-27 17:19:00,79.3,62.2,29.94,NE,45,2.7,-999.0,56,-99.99,,,0.00,Acu-Link.com,2013-04-27 21:19:00,
2013-04-27 17:35:00,80.6,62.9,29.94,NE,45,3.7,-999.0,55,-99.99,,,0.00,Acu-Link.com,2013-04-27 21:35:00,
2013-04-27 17:50:00,81.7,64.5,29.94,NNE,22,3.7,-999.0,56,-99.99,,,0.00,Acu-Link.com,2013-04-27 21:50:00,
2013-04-27 18:05:00,80.4,63.7,29.94,NNE,22,2.7,-999.0,57,-99.99,,,0.00,Acu-Link.com,2013-04-27 22:05:00,
2013-04-27 18:20:00,79.9,64.3,29.94,ESE,112,6.3,-999.0,59,-99.99,,,0.00,Acu-Link.com,2013-04-27 22:20:00,
2013-04-27 18:36:00,78.6,64.5,29.95,ENE,67,3.2,-999.0,62,-99.99,,,0.00,Acu-Link.com,2013-04-27 22:36:00,
2013-04-27 18:51:00,78.6,64.5,29.95,SE,135,3.7,-999.0,62,-99.99,,,0.00,Acu-Link.com,2013-04-27 22:51:00,
2013-04-27 19:06:00,78.8,64.2,29.94,NE,45,2.2,-999.0,61,-99.99,,,0.00,Acu-Link.com,2013-04-27 23:06:00,
2013-04-27 19:21:00,78.1,64.0,29.94,ENE,67,3.7,-999.0,62,-99.99,,,0.00,Acu-Link.com,2013-04-27 23:21:00,
2013-04-27 19:36:00,76.6,64.4,29.95,ESE,112,1.7,-999.0,66,-99.99,,,0.00,Acu-Link.com,2013-04-27 23:36:00,
2013-04-27 19:51:00,76.1,64.3,29.95,NNE,22,4.7,-999.0,67,-99.99,,,0.00,Acu-Link.com,2013-04-27 23:51:00,
2013-04-27 20:06:00,75.7,64.4,29.95,ESE,112,1.7,-999.0,68,-99.99,,,0.00,Acu-Link.com,2013-04-28 00:06:00,
2013-04-27 20:21:00,75.2,64.3,29.96,ENE,67,2.7,-999.0,69,-99.99,,,0.00,Acu-Link.com,2013-04-28 00:21:00,
2013-04-27 20:37:00,75.0,64.1,29.96,NNE,22,3.2,-999.0,69,-99.99,,,0.00,Acu-Link.com,2013-04-28 00:37:00,
2013-04-27 20:52:00,75.0,64.1,29.97,NE,45,2.7,-999.0,69,-99.99,,,0.00,Acu-Link.com,2013-04-28 00:52:00,
2013-04-27 21:07:00,75.2,64.3,29.97,NNE,22,3.7,-999.0,69,-99.99,,,0.00,Acu-Link.com,2013-04-28 01:07:00,
2013-04-27 21:22:00,75.2,63.9,29.98,ENE,67,8.3,-999.0,68,-99.99,,,0.00,Acu-Link.com,2013-04-28 01:22:00,
2013-04-27 21:37:00,75.2,63.5,29.98,NNE,22,3.2,-999.0,67,-99.99,,,0.00,Acu-Link.com,2013-04-28 01:37:00,
2013-04-27 21:52:00,74.8,63.1,29.99,NNE,22,2.2,-999.0,67,-99.99,,,0.00,Acu-Link.com,2013-04-28 01:52:00,
2013-04-27 22:07:00,74.7,63.0,29.99,NE,45,3.7,-999.0,67,-99.99,,,0.00,Acu-Link.com,2013-04-28 02:07:00,
2013-04-27 22:23:00,74.3,61.8,29.99,NNE,22,2.7,-999.0,65,-99.99,,,0.00,Acu-Link.com,2013-04-28 02:23:00,
2013-04-27 22:38:00,74.5,60.6,29.99,NNE,22,3.2,-999.0,62,-99.99,,,0.00,Acu-Link.com,2013-04-28 02:38:00,
2013-04-27 22:53:00,74.5,61.1,29.99,East,90,3.2,-999.0,63,-99.99,,,0.00,Acu-Link.com,2013-04-28 02:53:00,
2013-04-27 23:08:00,74.3,60.9,29.99,East,90,1.7,-999.0,63,-99.99,,,0.00,Acu-Link.com,2013-04-28 03:08:00,
2013-04-27 23:23:00,74.3,60.9,29.99,East,90,2.7,-999.0,63,-99.99,,,0.00,Acu-Link.com,2013-04-28 03:23:00,
2013-04-27 23:38:00,74.1,60.7,29.99,NE,45,5.3,-999.0,63,-99.99,,,0.00,Acu-Link.com,2013-04-28 03:38:00,
2013-04-27 23:53:00,74.1,60.7,29.99,SE,135,3.2,-999.0,63,-99.99,,,0.00,Acu-Link.com,2013-04-28 03:53:00,